TimeMST,TemperatureF,Dew PointF,Humidity,Sea Level PressureIn,VisibilityMPH,Wind Direction,Wind SpeedMPH,Gust SpeedMPH,PrecipitationIn,Events,Conditions,WindDirDegrees,DateUTC
12:58 AM,43.0,19.8,40,29.75,10.0,SE,21.9,27.6,N/A,,Scattered Clouds,130,2013-03-06 07:58:00
1:58 AM,42.1,19.6,41,29.72,10.0,SE,21.9,-,N/A,,Mostly Cloudy,130,2013-03-06 08:58:00
2:58 AM,43.7,19.4,38,29.72,10.0,SE,26.5,35.7,N/A,,Scattered Clouds,140,2013-03-06 09:58:00
3:58 AM,42.1,19.8,41,29.72,10.0,SSE,17.3,-,N/A,,Partly Cloudy,160,2013-03-06 10:58:00
4:53 AM,41.0,21.2,45,29.71,10.0,SE,13.8,-,N/A,,Overcast,140,2013-03-06 11:53:00
4:58 AM,41.4,20.3,43,29.72,10.0,SSE,13.8,-,N/A,,Overcast,150,2013-03-06 11:58:00
5:03 AM,41.0,19.4,42,29.71,10.0,SSE,17.3,21.9,N/A,,Overcast,150,2013-03-06 12:03:00
5:18 AM,41.0,19.4,42,29.70,10.0,ESE,24.2,31.1,N/A,,Mostly Cloudy,110,2013-03-06 12:18:00
5:58 AM,41.0,20.3,44,29.71,10.0,ESE,23.0,-,N/A,,Overcast,120,2013-03-06 12:58:00
6:58 AM,39.6,21.0,48,29.71,10.0,SE,16.1,-,N/A,,Scattered Clouds,130,2013-03-06 13:58:00
7:58 AM,39.7,21.7,49,29.72,10.0,SE,18.4,25.3,N/A,,Overcast,130,2013-03-06 14:58:00
8:58 AM,42.8,22.5,45,29.74,10.0,SSE,17.3,-,N/A,,Mostly Cloudy,150,2013-03-06 15:58:00
9:18 AM,41.0,23.0,49,29.74,10.0,South,16.1,-,N/A,,Overcast,170,2013-03-06 16:18:00
9:25 AM,41.0,23.0,49,29.74,10.0,SE,17.3,-,N/A,Rain,Light Rain Showers,140,2013-03-06 16:25:00
9:33 AM,41.0,23.0,49,29.72,10.0,SE,15.0,-,N/A,,Mostly Cloudy,130,2013-03-06 16:33:00
9:58 AM,44.1,24.4,46,29.71,10.0,East,15.0,-,N/A,,Mostly Cloudy,100,2013-03-06 16:58:00
10:58 AM,53.6,28.4,38,29.71,10.0,ESE,19.6,-,N/A,,Clear,120,2013-03-06 17:58:00
11:58 AM,56.7,28.2,34,29.69,10.0,SSE,16.1,25.3,N/A,,Scattered Clouds,150,2013-03-06 18:58:00
12:58 PM,56.5,18.3,23,29.70,10.0,SSW,27.6,36.8,N/A,,Mostly Cloudy,210,2013-03-06 19:58:00
1:04 PM,55.4,19.4,25,29.71,10.0,WSW,25.3,36.8,N/A,,Overcast,250,2013-03-06 20:04:00
1:20 PM,53.6,26.6,35,29.72,10.0,WSW,23.0,36.8,N/A,,Light Drizzle,250,2013-03-06 20:20:00
1:29 PM,53.6,24.8,33,29.73,10.0,WSW,17.3,29.9,N/A,,Mostly Cloudy,250,2013-03-06 20:29:00
1:58 PM,53.1,25.2,34,29.74,10.0,SW,20.7,28.8,0.00,,Mostly Cloudy,220,2013-03-06 20:58:00
2:58 PM,53.6,12.2,19,29.75,10.0,WSW,25.3,38.0,N/A,,Mostly Cloudy,250,2013-03-06 21:58:00
3:58 PM,55.2,14.7,20,29.75,10.0,SSW,18.4,28.8,N/A,,Scattered Clouds,200,2013-03-06 22:58:00
4:58 PM,53.2,14.2,21,29.77,8.0,WSW,25.3,34.5,N/A,,Clear,250,2013-03-06 23:58:00
5:51 PM,46.4,23.0,40,29.81,2.0,West,33.4,48.3,N/A,,Widespread Dust,270,2013-03-07 00:51:00
5:58 PM,46.4,24.4,42,29.84,6.0,West,36.8,48.3,0.03,,Haze,270,2013-03-07 00:58:00
6:58 PM,44.4,19.8,37,29.85,10.0,WSW,16.1,21.9,N/A,,Partly Cloudy,250,2013-03-07 01:58:00
10:58 PM,30.2,19.4,64,29.98,10.0,NE,4.6,-,N/A,,Partly Cloudy,50,2013-03-07 05:58:00
11:58 PM,30.2,21.2,69,29.99,10.0,South,2.3,-,N/A,,Partly Cloudy,180,2013-03-07 06:58:00